Regional Weather Roundup
Issued by NWS Charleston, SC

Current Version | Previous Version | Graphics & Text | Print | Product List | Glossary On
Versions: 1 2 3 4 5 6 7 8 9 10 11 12 13 14 15 16 17 18 19 20 21 22 23 24 25 26 27 28 29 30 31 32 33 34 35 36 37 38 39 40 41 42 43 44 45 46 47 48 49 50
000
ASUS42 KCHS 212228
RWRCHS

REGIONAL WEATHER ROUNDUP
NATIONAL WEATHER SERVICE CHARLESTON SC
600 PM EDT THU SEP 21 2017

NOTE: "FAIR" INDICATES FEW OR NO CLOUDS BELOW 12,000 FEET WITH NO
SIGNIFICANT WEATHER AND/OR OBSTRUCTIONS TO VISIBILITY.

NOT ALL STATIONS ARE QUALITY CONTROLLED. USE DATA WITH CAUTION...
ESPECIALLY DEWPOINT OBSERVATIONS.

SCZ027-030-031-034>040-042>050-212300-
...SOUTHEAST SOUTH CAROLINA...

CITY           SKY/WX    TMP DP  RH WIND       PRES   REMARKS
N CHARLESTON   CLOUDY    77  69  76 CALM      29.97S
WATERFRONT PRK   N/A     84  73  69 S6        29.82R HX  90
JOHNS ISLAND   FAIR      84  73  70 S6        29.98R HX  91
PINOPOLIS        N/A     82  73  74 CALM      29.90R
MONCKS CORNER  FAIR      79  64  61 S7        29.97R
SUMMERVILLE    FAIR      73  63  68 S3        29.98S
BEAUFORT MCAS  SUNNY     87  74  64 VRB3      29.97R THUNDER HX  95
BEAUFORT ARPT  FAIR      84  70  61 SE3       29.97R
HILTON HEAD IS SUNNY     82  73  74 S6        29.98S
WALTERBORO     MOCLDY    77  64  65 SE5       29.97F
ALLENDALE      NOT AVBL

...SOUTHERN MIDLANDS AND PEE DEE...

CITY           SKY/WX    TMP DP  RH WIND       PRES   REMARKS
GEORGETOWN     FAIR      79  77  94 CALM      29.98S
KINGSTREE      MOCLDY    77  68  73 CALM      29.97R
ORANGEBURG     PTSUNNY   88  66  48 SE6       29.96R THUNDER HX  90
BARNWELL       FAIR      88  70  55 E6        29.97R HX  92
AIKEN          FAIR      88  63  42 N7        30.00S
MANNING        TSTM      70  63  78 N16       30.00R
COLUMBIA       MOSUNNY   92  64  39 CALM      29.95S HX  93
SUMTER         MOSUNNY   85  64  48 SE9       29.95S
FLORENCE       SUNNY     88  68  51 N5        29.97R HX  91
MYRTLE BEACH   CLOUDY    78  71  79 NW5       29.99S
N MYRTLE BEACH CLOUDY    78  72  81 CALM      29.97F

$$

GAZ063-065-086>088-099>101-113>116-118-119-134>141-150-212300-
...SOUTHEAST GEORGIA...

CITY           SKY/WX    TMP DP  RH WIND       PRES   REMARKS
SAVANNAH ARPT  MOSUNNY   87  69  54 S10       29.96S HX  91
HUNTER AAF     SUNNY     85  71  63 S7        29.94S HX  90
FORT STEWART   MOSUNNY   86  70  58 SE6       29.94S HX  90
STATESBORO     MOSUNNY   84  66  55 NE3       29.97R
SYLVANIA       CLOUDY    78  72  82 S3        29.98S
CLAXTON        FAIR      89  71  54 E3        29.95S HX  95

...CSRA...CENTRAL AND FAR SOUTHEAST GEORGIA...

CITY           SKY/WX    TMP DP  RH WIND       PRES   REMARKS
THOMSON        SUNNY     89  65  43 E3        30.01F HX  91
AUGUSTA-BUSH   MOSUNNY   89  72  56 E3        29.94S HX  96
AUGUSTA-DANIEL SUNNY     92  63  38 N6        29.96F HX  93
SWAINSBORO     MOCLDY    86  68  54 SW8       29.98R
VIDALIA        PTSUNNY   82  72  69 N6        29.97R
EASTMAN        FAIR      89  53  28 E10       29.99R
HAZLEHURST     FAIR      89  55  31 S3        29.96R
ALMA           CLOUDY    80  75  84 CALM      29.95F
WAYCROSS       CLOUDY    85  69  59 CALM      29.96F
JESUP          NOT AVBL
BAXLEY         FAIR      86  68  54 E5        29.95F
BRUNSWICK      MOSUNNY   82  70  65 SE8       29.98S
SAINT SIMONS   MOSUNNY   82  74  76 SE8       29.97S

$$

SCZ027-028-034-036>038-045-046-048>050-GAZ119-141-212300-
...LAKE AND SUPPLEMENTAL COASTAL OBSERVATIONS...

STATION/POSITION TIME  TEMP    WIND        PRES    WAVE   SWELL
                       AIR SEA DIR/SP/G            HT/PER HT/PER/DIR
                 (UTC) (F)     (DEG/KT/KT) (MB)    (FT/S) (FT/S/D)
WINYAH BAY       2045   82     160/  7     1015.0
LAKE MURRAY      NOT AVBL
ACE BASIN NERRS  2045   86     160/  2     1015.0
FORT PULASKI     2148   84 80  160/  6/  9 1015.2F
SAPELO ISLAND    2100   85        CALM     1015.0

$$

ANZ835-935-AMZ111-154-330-350-352-354-370-450-454-472-212300-
...C-MAN AND BUOY OBSERVATIONS...

STATION/POSITION TIME  TEMP    WIND        PRES    WAVE   SWELL
                       AIR SEA DIR/SP/G            HT/PER HT/PER/DIR
                 (UTC) (F)     (DEG/KT/KT) (MB)    (FT/S) (FT/S/D)
BUOY 41004       2150   81 82  160/  6/  8 1014.5S   2/11   2/130/11
BUOY 41008       2050   81 83   80/  6/  8 1014.9    3/11   2/ 70/11
FOLLY BEACH CMAN 2200   81     210/  7/  8 1015.8R
CAPERS NEARSHORE 2108   81 82  200/  8/ 10 1014.7
FRIPP NEARSHORE  2108   83     190/  8/ 10 1021.4F


STATION/POSITION TIME  TEMP    WIND        PRES    WAVE   SWELL
                       AIR SEA DIR/SP/G            HT/PER HT/PER/DIR
                 (UTC) (F)     (DEG/KT/KT) (MB)    (FT/S) (FT/S/D)
5E ST. MARYS GA  2200      83                N/A     2/11   2/100/11
FRYING PAN BUOY  2150   82 82  210/  4/  6 1014.5F   3/11   3/100/11
BUOY 41025       2150   77 78   40/ 10/ 12 1015.1F   5/10   5/ 60/10
CAPE LOOKOUT NC  2200   79     250/  4/  5 1015.2R
BUOY 41002       2150   80 83   CALM  /  2 1015.1F   4/10   5/ 30/10
BUOY 41010       2150      85   60/ 12/ 16 1014.1F   4/11   3/11
ST AUGUSTINE FL  2200   81 85   70/  7/  8 1015.1F


$$



USA.gov is the U.S. government's official web portal to all federal, state and local government web resources and services.